Content
SEND FEEDBACK

Daily
Averages
Monthly
Summary
United States of America

HAZELWOOD, MISSOURI


Home > North America > United States > Missouri
Elevation: 570 feet     Latitude: 38 45N     Longitude: 090 22W

WEATHER
 
SELECT A DAY
Number of Records: 200,489;   Date Range: 1/1/95 - 11/22/14
 
SHARE

PRINT THIS DATA

[ ← Previous Day ]
WEATHER ALMANAC - MARCH 26, 2013
[ Next Day → ]
[ °C ]   °F
Weather ElementAverageHighLow
Temperature33.5 °F39 °F (2:54 pm)25 °F (10:54 pm)
Dewpoint22.2 °F24.1 °F (1:54 am)19.9 °F (4:54 pm)
Humidity64.6 %85 % (10:54 pm)46 % (4:54 pm)
Barometer30.33 in30.39 in (11:54 pm)30.24 in (1:54 am)
Wind Speed7.6 mph13.8 mph (4:54 pm)
Wind Gust18.4 mph (2:54 pm)
Weather ElementAverage
Visibility10 mi
Wind DirectionWSW (254.8 °)

Weather ElementTotal
Precipitation---
Heating Degree Days33 (Base 65)
Averaged from 23 records on March 26, 2013
WEATHER CONDITIONS BREAKOUT
WIND DIRECTION BREAKOUT
WEATHER BY HOUR - MARCH 26, 2013
[ °C ]   °F
Local TimeTemperatureDewpointHumidityBarometerVisibilityWind DirectionWind SpeedGust SpeedPrecipitationEventsConditions
1:54 AM32.0 °F24.1 °F73 %30.24 in10.0 miWest (280°)8.1 mphOvercast
2:54 AM32.0 °F24.1 °F73 %30.24 in10.0 miWNW (290°)9.2 mphOvercast
3:54 AM32.0 °F24.1 °F73 %30.24 in10.0 miWNW (300°)10.4 mphOvercast
4:54 AM32.0 °F24.1 °F73 %30.25 in10.0 miWNW (300°)8.1 mphOvercast
5:54 AM32.0 °F24.1 °F73 %30.27 in10.0 miWNW (290°)6.9 mphOvercast
6:54 AM32.0 °F23.0 °F69 %30.29 in10.0 miWest (280°)8.1 mphOvercast
7:54 AM30.9 °F23.0 °F72 %30.31 in10.0 miWest (280°)6.9 mphOvercast
8:54 AM32.0 °F23.0 °F69 %30.33 in10.0 miWNW (290°)8.1 mphOvercast
9:54 AM33.1 °F24.1 °F70 %30.35 in10.0 miNW (310°)8.1 mphScattered Clouds
10:54 AM36.0 °F21.9 °F57 %30.36 in10.0 miWNW (300°)12.7 mphMostly Cloudy
11:54 AM36.0 °F21.9 °F57 %30.36 in10.0 miWNW (290°)4.6 mphMostly Cloudy
12:54 PM37.9 °F21.9 °F53 %30.36 in10.0 miWNW (290°)9.2 mphMostly Cloudy
1:54 PM37.9 °F21.0 °F51 %30.35 in10.0 miWNW (290°)9.2 mphMostly Cloudy
2:54 PM39.0 °F21.9 °F50 %30.35 in10.0 miWNW (290°)10.4 mph18.4 mphMostly Cloudy
3:54 PM39.0 °F21.0 °F49 %30.35 in10.0 miNNW (330°)12.7 mphMostly Cloudy
4:54 PM39.0 °F19.9 °F46 %30.34 in10.0 miNW (310°)13.8 mphScattered Clouds
5:54 PM37.9 °F21.0 °F51 %30.35 in10.0 miNW (320°)12.7 mphScattered Clouds
6:54 PM37.0 °F21.0 °F52 %30.35 in10.0 miNNW (330°)9.2 mphPartly Cloudy
7:54 PM35.1 °F21.0 °F57 %30.36 in10.0 miCalmClear
8:54 PM30.0 °F21.9 °F72 %30.37 in10.0 miCalmClear
9:54 PM28.0 °F21.0 °F75 %30.38 in10.0 miCalmClear
10:54 PM25.0 °F21.0 °F85 %30.38 in10.0 miWSW (250°)3.5 mphClear
11:54 PM25.0 °F21.0 °F85 %30.39 in10.0 miWSW (240°)3.5 mphClear
Hourly data recorded from KSUS, located miles away from Hazelwood, Missouri







STORIES FROM OUR PARTNERS